Time,TemperatureF,DewpointF,PressureIn,WindDirection,WindDirectionDegrees,WindSpeedMPH,WindSpeedGustMPH,Humidity,HourlyPrecipIn,Conditions,Clouds,dailyrainin,SoftwareType,DateUTC
2013-08-29 00:00:00,61.4,60.8,29.94,SSW,203,7.0,11.0,98,0.00,,,0.00,Wunderground v.1.15,2013-08-29 07:00:00,
2013-08-29 00:05:00,61.4,60.8,29.95,SSW,207,7.0,11.0,98,0.00,,,0.00,Wunderground v.1.15,2013-08-29 07:05:00,
2013-08-29 00:15:00,61.4,60.8,29.95,SSW,202,7.0,8.0,98,0.00,,,0.00,Wunderground v.1.15,2013-08-29 07:15:00,
2013-08-29 00:25:00,61.3,60.7,29.95,SSW,193,6.0,7.0,98,0.00,,,0.00,Wunderground v.1.15,2013-08-29 07:25:00,
2013-08-29 00:30:00,61.2,60.6,29.95,SSW,194,7.0,7.0,98,0.00,,,0.00,Wunderground v.1.15,2013-08-29 07:30:00,
2013-08-29 00:35:00,61.2,60.6,29.95,SSW,196,6.0,7.0,98,0.00,,,0.00,Wunderground v.1.15,2013-08-29 07:35:00,
2013-08-29 00:40:00,61.2,60.6,29.95,SSW,197,6.0,6.0,98,0.00,,,0.00,Wunderground v.1.15,2013-08-29 07:40:00,
2013-08-29 00:45:00,61.1,60.5,29.95,SSW,196,5.0,6.0,98,0.00,,,0.00,Wunderground v.1.15,2013-08-29 07:45:00,
2013-08-29 00:50:00,61.1,60.5,29.95,SSW,196,5.0,5.0,98,0.00,,,0.00,Wunderground v.1.15,2013-08-29 07:50:00,
2013-08-29 01:00:00,61.1,60.5,29.95,South,189,6.0,6.0,98,0.00,,,0.00,Wunderground v.1.15,2013-08-29 08:00:00,
2013-08-29 01:05:00,61.1,60.5,29.95,SSW,198,6.0,12.0,98,0.00,,,0.00,Wunderground v.1.15,2013-08-29 08:05:00,
2013-08-29 01:10:00,61.0,60.4,29.95,SSW,195,4.0,4.0,98,0.00,,,0.00,Wunderground v.1.15,2013-08-29 08:10:00,
2013-08-29 01:15:00,61.0,60.4,29.95,SSW,194,2.0,12.0,98,0.00,,,0.00,Wunderground v.1.15,2013-08-29 08:15:00,
2013-08-29 01:20:00,60.9,60.3,29.95,SSW,196,2.0,12.0,98,0.00,,,0.00,Wunderground v.1.15,2013-08-29 08:20:00,
2013-08-29 01:25:00,60.9,60.3,29.95,SSW,197,4.0,12.0,98,0.00,,,0.00,Wunderground v.1.15,2013-08-29 08:25:00,
2013-08-29 01:35:00,60.8,60.2,29.95,SSW,195,4.0,5.0,98,0.00,,,0.00,Wunderground v.1.15,2013-08-29 08:35:00,
2013-08-29 01:40:00,60.7,60.1,29.95,SSW,196,4.0,12.0,98,0.00,,,0.00,Wunderground v.1.15,2013-08-29 08:40:00,
2013-08-29 01:45:00,60.7,60.1,29.95,SSW,197,3.0,12.0,98,0.00,,,0.00,Wunderground v.1.15,2013-08-29 08:45:00,
2013-08-29 01:50:00,60.7,60.1,29.95,SSW,197,2.0,12.0,98,0.00,,,0.00,Wunderground v.1.15,2013-08-29 08:50:00,
2013-08-29 01:55:00,60.6,60.0,29.95,SSW,196,2.0,12.0,98,0.00,,,0.00,Wunderground v.1.15,2013-08-29 08:55:00,
2013-08-29 02:00:00,60.6,60.0,29.96,SSW,197,4.0,12.0,98,0.00,,,0.00,Wunderground v.1.15,2013-08-29 09:00:00,
2013-08-29 02:10:00,60.6,60.0,29.95,South,190,4.0,12.0,98,0.00,,,0.00,Wunderground v.1.15,2013-08-29 09:10:00,
2013-08-29 02:15:00,60.5,59.9,29.95,SSW,195,5.0,12.0,98,0.00,,,0.00,Wunderground v.1.15,2013-08-29 09:15:00,
2013-08-29 02:20:00,60.5,59.9,29.95,South,190,5.0,5.0,98,0.00,,,0.00,Wunderground v.1.15,2013-08-29 09:20:00,
2013-08-29 02:25:00,60.5,59.9,29.95,South,186,5.0,7.0,98,0.00,,,0.00,Wunderground v.1.15,2013-08-29 09:25:00,
2013-08-29 02:30:00,60.5,60.2,29.96,South,188,6.0,6.0,99,0.00,,,0.00,Wunderground v.1.15,2013-08-29 09:30:00,
2013-08-29 02:35:00,60.5,60.2,29.96,South,189,5.0,12.0,99,0.00,,,0.00,Wunderground v.1.15,2013-08-29 09:35:00,
2013-08-29 02:45:00,60.5,60.2,29.96,South,190,2.0,12.0,99,0.00,,,0.00,Wunderground v.1.15,2013-08-29 09:45:00,
2013-08-29 02:50:00,60.4,60.1,29.96,South,190,3.0,3.0,99,0.00,,,0.00,Wunderground v.1.15,2013-08-29 09:50:00,
2013-08-29 02:55:00,60.4,60.1,29.96,South,191,3.0,12.0,99,0.00,,,0.00,Wunderground v.1.15,2013-08-29 09:55:00,
2013-08-29 03:00:00,60.4,60.1,29.96,SSW,192,3.0,12.0,99,0.00,,,0.00,Wunderground v.1.15,2013-08-29 10:00:00,
2013-08-29 03:10:00,60.4,60.1,29.96,SSW,194,4.0,12.0,99,0.00,,,0.00,Wunderground v.1.15,2013-08-29 10:10:00,
2013-08-29 03:15:00,60.4,59.8,29.96,SSW,196,5.0,12.0,98,0.00,,,0.00,Wunderground v.1.15,2013-08-29 10:15:00,
2013-08-29 03:20:00,60.3,59.7,29.96,SSW,198,5.0,12.0,98,0.00,,,0.00,Wunderground v.1.15,2013-08-29 10:20:00,
2013-08-29 03:25:00,60.2,59.6,29.96,SSW,199,5.0,12.0,98,0.00,,,0.00,Wunderground v.1.15,2013-08-29 10:25:00,
2013-08-29 03:30:00,60.2,59.6,29.96,SSW,200,5.0,5.0,98,0.00,,,0.00,Wunderground v.1.15,2013-08-29 10:30:00,
2013-08-29 03:35:00,60.1,59.5,29.96,SSW,201,5.0,12.0,98,0.00,,,0.00,Wunderground v.1.15,2013-08-29 10:35:00,
2013-08-29 03:45:00,60.0,59.7,29.96,SSW,201,3.0,12.0,99,0.00,,,0.00,Wunderground v.1.15,2013-08-29 10:45:00,
2013-08-29 03:50:00,60.0,59.7,29.96,SSW,201,1.0,1.0,99,0.00,,,0.00,Wunderground v.1.15,2013-08-29 10:50:00,
2013-08-29 03:55:00,60.0,59.7,29.96,SSW,201,1.0,12.0,99,0.00,,,0.00,Wunderground v.1.15,2013-08-29 10:55:00,
2013-08-29 04:00:00,59.9,59.6,29.97,SSW,201,1.0,12.0,99,0.00,,,0.00,Wunderground v.1.15,2013-08-29 11:00:00,
2013-08-29 04:05:00,59.9,59.6,29.97,SSW,201,1.0,12.0,99,0.00,,,0.00,Wunderground v.1.15,2013-08-29 11:05:00,
2013-08-29 04:10:00,59.8,59.5,29.97,SSW,201,3.0,3.0,99,0.00,,,0.00,Wunderground v.1.15,2013-08-29 11:10:00,
2013-08-29 04:20:00,59.6,59.3,29.97,SSW,201,2.0,2.0,99,0.00,,,0.00,Wunderground v.1.15,2013-08-29 11:20:00,
2013-08-29 04:25:00,59.6,59.3,29.97,SSW,201,1.0,12.0,99,0.00,,,0.00,Wunderground v.1.15,2013-08-29 11:25:00,
2013-08-29 04:30:00,59.6,59.3,29.98,SSW,201,1.0,1.0,99,0.00,,,0.00,Wunderground v.1.15,2013-08-29 11:30:00,
2013-08-29 04:35:00,59.5,59.2,29.97,SSW,201,2.0,2.0,99,0.00,,,0.00,Wunderground v.1.15,2013-08-29 11:35:00,
2013-08-29 04:40:00,59.5,59.2,29.97,SSW,201,1.0,1.0,99,0.00,,,0.00,Wunderground v.1.15,2013-08-29 11:40:00,
2013-08-29 04:50:00,59.3,59.0,29.97,SSW,201,0.0,12.0,99,0.00,,,0.00,Wunderground v.1.15,2013-08-29 11:50:00,
2013-08-29 04:55:00,59.3,59.0,29.97,SSW,201,0.0,12.0,99,0.00,,,0.00,Wunderground v.1.15,2013-08-29 11:55:00,
2013-08-29 05:00:00,59.3,59.0,29.97,SSW,201,2.0,12.0,99,0.00,,,0.00,Wunderground v.1.15,2013-08-29 12:00:00,
2013-08-29 05:05:00,59.3,59.0,29.98,SSW,201,2.0,12.0,99,0.00,,,0.00,Wunderground v.1.15,2013-08-29 12:05:00,
2013-08-29 05:15:00,59.3,59.0,29.98,SSW,201,0.0,12.0,99,0.00,,,0.00,Wunderground v.1.15,2013-08-29 12:15:00,
2013-08-29 05:25:00,59.4,59.1,29.98,SSW,201,1.0,12.0,99,0.00,,,0.00,Wunderground v.1.15,2013-08-29 12:25:00,
2013-08-29 05:30:00,59.4,59.1,29.98,SSW,201,1.0,1.0,99,0.00,,,0.00,Wunderground v.1.15,2013-08-29 12:30:00,
2013-08-29 05:35:00,59.5,59.2,29.98,SSW,201,1.0,12.0,99,0.00,,,0.00,Wunderground v.1.15,2013-08-29 12:35:00,
2013-08-29 05:40:00,59.5,59.2,29.98,SSW,201,1.0,1.0,99,0.00,,,0.00,Wunderground v.1.15,2013-08-29 12:40:00,
2013-08-29 05:50:00,59.6,59.3,29.98,SSW,201,0.0,12.0,99,0.00,,,0.00,Wunderground v.1.15,2013-08-29 12:50:00,
2013-08-29 05:55:00,59.6,59.3,29.99,SSW,201,0.0,12.0,99,0.00,,,0.00,Wunderground v.1.15,2013-08-29 12:55:00,
2013-08-29 06:00:00,59.7,59.4,29.99,SSW,201,0.0,12.0,99,0.00,,,0.00,Wunderground v.1.15,2013-08-29 13:00:00,
2013-08-29 06:05:00,59.6,59.3,29.98,SSW,201,0.0,12.0,99,0.00,,,0.00,Wunderground v.1.15,2013-08-29 13:05:00,
2013-08-29 06:15:00,59.6,59.3,29.99,SSW,201,1.0,12.0,99,0.00,,,0.00,Wunderground v.1.15,2013-08-29 13:15:00,
2013-08-29 06:20:00,59.6,59.3,29.99,SSW,201,0.0,12.0,99,0.00,,,0.00,Wunderground v.1.15,2013-08-29 13:20:00,
2013-08-29 06:25:00,59.7,59.4,29.99,SSW,201,0.0,12.0,99,0.00,,,0.00,Wunderground v.1.15,2013-08-29 13:25:00,
2013-08-29 06:30:00,59.6,59.3,29.99,SSW,201,0.0,12.0,99,0.00,,,0.00,Wunderground v.1.15,2013-08-29 13:30:00,
2013-08-29 06:35:00,59.6,59.3,29.99,SSW,201,0.0,12.0,99,0.00,,,0.00,Wunderground v.1.15,2013-08-29 13:35:00,
2013-08-29 06:40:00,59.7,59.4,29.99,SSW,207,0.0,12.0,99,0.00,,,0.00,Wunderground v.1.15,2013-08-29 13:40:00,
2013-08-29 06:50:00,59.7,59.4,30.00,SSW,207,0.0,12.0,99,0.00,,,0.00,Wunderground v.1.15,2013-08-29 13:50:00,
2013-08-29 06:55:00,59.7,59.4,30.00,SSW,207,0.0,12.0,99,0.00,,,0.00,Wunderground v.1.15,2013-08-29 13:55:00,
2013-08-29 07:00:00,59.7,59.4,30.00,SSW,207,0.0,12.0,99,0.00,,,0.00,Wunderground v.1.15,2013-08-29 14:00:00,
2013-08-29 07:05:00,59.7,59.4,30.01,SSW,207,0.0,12.0,99,0.00,,,0.00,Wunderground v.1.15,2013-08-29 14:05:00,
2013-08-29 07:10:00,59.8,59.5,30.01,SSW,207,0.0,12.0,99,0.00,,,0.00,Wunderground v.1.15,2013-08-29 14:10:00,
2013-08-29 07:20:00,59.8,59.5,30.01,SSW,207,1.0,1.0,99,0.00,,,0.00,Wunderground v.1.15,2013-08-29 14:20:00,
2013-08-29 07:25:00,59.9,59.6,30.01,SSW,207,2.0,2.0,99,0.00,,,0.00,Wunderground v.1.15,2013-08-29 14:25:00,
2013-08-29 07:30:00,59.9,59.6,30.02,SSW,206,1.0,12.0,99,0.00,,,0.00,Wunderground v.1.15,2013-08-29 14:30:00,
2013-08-29 07:35:00,60.0,59.7,30.02,SSW,207,2.0,12.0,99,0.00,,,0.00,Wunderground v.1.15,2013-08-29 14:35:00,
2013-08-29 07:40:00,60.1,59.8,30.02,SSW,200,3.0,12.0,99,0.00,,,0.00,Wunderground v.1.15,2013-08-29 14:40:00,
2013-08-29 07:50:00,60.2,59.9,30.02,SSW,204,3.0,12.0,99,0.00,,,0.00,Wunderground v.1.15,2013-08-29 14:50:00,
2013-08-29 07:55:00,60.3,60.0,30.02,SSW,203,2.0,12.0,99,0.00,,,0.00,Wunderground v.1.15,2013-08-29 14:55:00,
2013-08-29 08:00:00,60.3,60.0,30.02,SSW,199,1.0,1.0,99,0.00,,,0.00,Wunderground v.1.15,2013-08-29 15:00:00,
2013-08-29 08:05:00,60.3,60.0,30.02,SSW,200,1.0,12.0,99,0.00,,,0.00,Wunderground v.1.15,2013-08-29 15:05:00,
2013-08-29 08:10:00,60.4,60.1,30.02,SSW,200,1.0,1.0,99,0.00,,,0.00,Wunderground v.1.15,2013-08-29 15:10:00,
2013-08-29 08:15:00,60.5,60.2,30.03,South,191,0.0,12.0,99,0.00,,,0.00,Wunderground v.1.15,2013-08-29 15:15:00,
2013-08-29 08:25:00,60.9,60.6,30.03,South,180,0.0,12.0,99,0.00,,,0.00,Wunderground v.1.15,2013-08-29 15:25:00,
2013-08-29 08:30:00,61.1,60.8,30.03,SE,136,0.0,12.0,99,0.00,,,0.00,Wunderground v.1.15,2013-08-29 15:30:00,
2013-08-29 08:35:00,61.2,60.9,30.03,SE,132,1.0,12.0,99,0.00,,,0.00,Wunderground v.1.15,2013-08-29 15:35:00,
2013-08-29 08:40:00,61.4,61.1,30.03,SE,137,1.0,12.0,99,0.00,,,0.00,Wunderground v.1.15,2013-08-29 15:40:00,
2013-08-29 08:50:00,61.9,61.6,30.04,SE,144,2.0,2.0,99,0.00,,,0.00,Wunderground v.1.15,2013-08-29 15:50:00,
2013-08-29 08:55:00,62.1,61.8,30.03,SE,144,1.0,12.0,99,0.00,,,0.00,Wunderground v.1.15,2013-08-29 15:55:00,
2013-08-29 09:00:00,62.3,62.0,30.03,SE,144,1.0,12.0,99,0.00,,,0.00,Wunderground v.1.15,2013-08-29 16:00:00,
2013-08-29 09:05:00,62.3,62.0,30.03,SE,144,0.0,12.0,99,0.00,,,0.00,Wunderground v.1.15,2013-08-29 16:05:00,
2013-08-29 09:10:00,62.5,62.2,30.03,SE,130,1.0,12.0,99,0.00,,,0.00,Wunderground v.1.15,2013-08-29 16:10:00,
2013-08-29 09:20:00,63.0,62.7,30.04,South,187,2.0,2.0,99,0.00,,,0.00,Wunderground v.1.15,2013-08-29 16:20:00,
2013-08-29 09:25:00,63.1,62.8,30.04,SSW,194,3.0,4.0,99,0.00,,,0.00,Wunderground v.1.15,2013-08-29 16:25:00,
2013-08-29 09:30:00,63.4,62.8,30.04,SSW,192,2.0,2.0,98,0.00,,,0.00,Wunderground v.1.15,2013-08-29 16:30:00,
2013-08-29 09:35:00,63.7,62.8,30.04,SSW,203,1.0,12.0,97,0.00,,,0.00,Wunderground v.1.15,2013-08-29 16:35:00,
2013-08-29 09:40:00,64.1,62.9,30.04,SSW,205,2.0,2.0,96,0.00,,,0.00,Wunderground v.1.15,2013-08-29 16:40:00,
2013-08-29 09:50:00,65.0,63.2,30.04,South,188,3.0,3.0,94,0.00,,,0.00,Wunderground v.1.15,2013-08-29 16:50:00,
2013-08-29 09:55:00,65.5,63.1,30.04,South,174,2.0,7.0,92,0.00,,,0.00,Wunderground v.1.15,2013-08-29 16:55:00,
2013-08-29 10:00:00,65.7,63.0,30.05,SSW,192,3.0,3.0,91,0.00,,,0.00,Wunderground v.1.15,2013-08-29 17:00:00,
2013-08-29 10:05:00,66.1,62.8,30.05,SSW,198,5.0,6.0,89,0.00,,,0.00,Wunderground v.1.15,2013-08-29 17:05:00,
2013-08-29 10:10:00,66.5,62.8,30.05,SSW,202,5.0,12.0,88,0.00,,,0.00,Wunderground v.1.15,2013-08-29 17:10:00,
2013-08-29 10:15:00,66.8,63.1,30.05,SSE,167,5.0,12.0,88,0.00,,,0.00,Wunderground v.1.15,2013-08-29 17:15:00,
2013-08-29 10:25:00,67.7,63.4,30.05,South,173,5.0,12.0,86,0.00,,,0.00,Wunderground v.1.15,2013-08-29 17:25:00,
2013-08-29 10:30:00,68.2,63.2,30.05,SSE,163,6.0,12.0,84,0.00,,,0.00,Wunderground v.1.15,2013-08-29 17:30:00,
2013-08-29 10:35:00,68.3,63.6,30.05,South,169,7.0,12.0,85,0.00,,,0.00,Wunderground v.1.15,2013-08-29 17:35:00,
2013-08-29 10:40:00,68.5,63.5,30.05,South,173,8.0,12.0,84,0.00,,,0.00,Wunderground v.1.15,2013-08-29 17:40:00,
2013-08-29 10:45:00,68.8,63.4,30.05,SSW,205,7.0,12.0,83,0.00,,,0.00,Wunderground v.1.15,2013-08-29 17:45:00,
2013-08-29 10:50:00,69.1,63.4,30.05,SSW,197,7.0,12.0,82,0.00,,,0.00,Wunderground v.1.15,2013-08-29 17:50:00,
2013-08-29 10:55:00,69.0,63.3,30.05,South,188,8.0,12.0,82,0.00,,,0.00,Wunderground v.1.15,2013-08-29 17:55:00,
2013-08-29 11:05:00,69.0,62.9,30.06,SSW,204,9.0,12.0,81,0.00,,,0.00,Wunderground v.1.15,2013-08-29 18:05:00,
2013-08-29 11:10:00,69.2,63.1,30.05,SSW,196,10.0,12.0,81,0.00,,,0.00,Wunderground v.1.15,2013-08-29 18:10:00,
2013-08-29 11:15:00,69.5,63.4,30.05,SSW,199,10.0,12.0,81,0.00,,,0.00,Wunderground v.1.15,2013-08-29 18:15:00,
2013-08-29 11:20:00,69.5,63.1,30.05,SSW,213,10.0,10.0,80,0.00,,,0.00,Wunderground v.1.15,2013-08-29 18:20:00,
2013-08-29 11:25:00,69.5,63.1,30.06,SSW,198,10.0,12.0,80,0.00,,,0.00,Wunderground v.1.15,2013-08-29 18:25:00,
2013-08-29 11:30:00,69.0,62.9,30.06,South,187,10.0,10.0,81,0.00,,,0.00,Wunderground v.1.15,2013-08-29 18:30:00,
2013-08-29 11:40:00,69.5,63.1,30.06,SSW,197,11.0,11.0,80,0.00,,,0.00,Wunderground v.1.15,2013-08-29 18:40:00,
2013-08-29 11:45:00,69.2,63.1,30.06,SSW,198,11.0,12.0,81,0.00,,,0.00,Wunderground v.1.15,2013-08-29 18:45:00,
2013-08-29 11:50:00,69.0,62.9,30.06,SW,221,10.0,12.0,81,0.00,,,0.00,Wunderground v.1.15,2013-08-29 18:50:00,
2013-08-29 11:55:00,68.7,62.6,30.06,SSW,194,10.0,12.0,81,0.00,,,0.00,Wunderground v.1.15,2013-08-29 18:55:00,
2013-08-29 12:00:00,68.8,62.7,30.06,South,169,9.0,9.0,81,0.00,,,0.00,Wunderground v.1.15,2013-08-29 19:00:00,
2013-08-29 12:05:00,69.3,63.2,30.06,South,171,8.0,12.0,81,0.00,,,0.00,Wunderground v.1.15,2013-08-29 19:05:00,
2013-08-29 12:15:00,70.1,62.9,30.06,South,184,10.0,14.0,78,0.00,,,0.00,Wunderground v.1.15,2013-08-29 19:15:00,
2013-08-29 12:20:00,70.4,62.8,30.06,SSE,156,9.0,12.0,77,0.00,,,0.00,Wunderground v.1.15,2013-08-29 19:20:00,
2013-08-29 12:25:00,70.3,63.1,30.06,SW,231,9.0,12.0,78,0.00,,,0.00,Wunderground v.1.15,2013-08-29 19:25:00,
2013-08-29 12:30:00,70.3,63.1,30.05,South,190,10.0,12.0,78,0.00,,,0.00,Wunderground v.1.15,2013-08-29 19:30:00,
2013-08-29 12:35:00,70.9,63.0,30.05,SSW,194,10.0,12.0,76,0.00,,,0.00,Wunderground v.1.15,2013-08-29 19:35:00,
2013-08-29 12:40:00,71.2,63.2,30.05,SSW,193,9.0,12.0,76,0.00,,,0.00,Wunderground v.1.15,2013-08-29 19:40:00,
2013-08-29 12:50:00,70.9,63.0,30.05,SSW,194,9.0,12.0,76,0.00,,,0.00,Wunderground v.1.15,2013-08-29 19:50:00,
2013-08-29 12:55:00,71.2,62.9,30.05,SSE,165,9.0,12.0,75,0.00,,,0.00,Wunderground v.1.15,2013-08-29 19:55:00,
2013-08-29 13:00:00,70.9,63.0,30.05,South,173,8.0,14.0,76,0.00,,,0.00,Wunderground v.1.15,2013-08-29 20:00:00,
2013-08-29 13:05:00,70.4,62.8,30.05,SSW,212,8.0,14.0,77,0.00,,,0.00,Wunderground v.1.15,2013-08-29 20:05:00,
2013-08-29 13:10:00,71.0,63.1,30.05,South,180,9.0,12.0,76,0.00,,,0.00,Wunderground v.1.15,2013-08-29 20:10:00,
2013-08-29 13:20:00,71.2,62.9,30.04,South,184,9.0,12.0,75,0.00,,,0.00,Wunderground v.1.15,2013-08-29 20:20:00,
2013-08-29 13:25:00,71.2,62.9,30.04,South,170,9.0,13.0,75,0.00,,,0.00,Wunderground v.1.15,2013-08-29 20:25:00,
2013-08-29 13:30:00,71.0,62.7,30.04,SSW,196,9.0,9.0,75,0.00,,,0.00,Wunderground v.1.15,2013-08-29 20:30:00,
2013-08-29 13:35:00,71.2,62.9,30.04,SSW,192,10.0,14.0,75,0.00,,,0.00,Wunderground v.1.15,2013-08-29 20:35:00,
2013-08-29 13:40:00,71.3,62.6,30.04,SSW,205,11.0,13.0,74,0.00,,,0.00,Wunderground v.1.15,2013-08-29 20:40:00,
2013-08-29 13:50:00,72.4,63.3,30.04,SW,217,11.0,14.0,73,0.00,,,0.00,Wunderground v.1.15,2013-08-29 20:50:00,
2013-08-29 13:55:00,72.2,62.7,30.04,SSW,192,11.0,14.0,72,0.00,,,0.00,Wunderground v.1.15,2013-08-29 20:55:00,
2013-08-29 14:00:00,72.3,62.8,30.04,SSW,210,11.0,14.0,72,0.00,,,0.00,Wunderground v.1.15,2013-08-29 21:00:00,
2013-08-29 14:05:00,72.2,62.7,30.04,SSW,202,11.0,14.0,72,0.00,,,0.00,Wunderground v.1.15,2013-08-29 21:05:00,
2013-08-29 14:10:00,71.9,62.4,30.04,SSW,206,11.0,12.0,72,0.00,,,0.00,Wunderground v.1.15,2013-08-29 21:10:00,
2013-08-29 14:20:00,71.6,62.5,30.04,SSW,209,12.0,12.0,73,0.00,,,0.00,Wunderground v.1.15,2013-08-29 21:20:00,
2013-08-29 14:25:00,71.5,62.8,30.04,SSW,196,12.0,13.0,74,0.00,,,0.00,Wunderground v.1.15,2013-08-29 21:25:00,
2013-08-29 14:30:00,71.7,62.6,30.04,SSW,192,13.0,13.0,73,0.00,,,0.00,Wunderground v.1.15,2013-08-29 21:30:00,
2013-08-29 14:35:00,71.5,62.8,30.04,SSW,196,13.0,19.0,74,0.00,,,0.00,Wunderground v.1.15,2013-08-29 21:35:00,
2013-08-29 14:40:00,71.6,62.5,30.04,SSW,196,12.0,12.0,73,0.00,,,0.00,Wunderground v.1.15,2013-08-29 21:40:00,
2013-08-29 14:50:00,71.8,62.7,30.04,SSW,196,11.0,15.0,73,0.00,,,0.00,Wunderground v.1.15,2013-08-29 21:50:00,
2013-08-29 14:55:00,71.6,62.5,30.03,South,177,11.0,15.0,73,0.00,,,0.00,Wunderground v.1.15,2013-08-29 21:55:00,
2013-08-29 15:00:00,71.7,62.6,30.04,SSW,199,10.0,12.0,73,0.00,,,0.00,Wunderground v.1.15,2013-08-29 22:00:00,
2013-08-29 15:05:00,71.5,62.4,30.03,SW,214,11.0,12.0,73,0.00,,,0.00,Wunderground v.1.15,2013-08-29 22:05:00,
2013-08-29 15:15:00,72.3,62.8,30.03,SSW,194,11.0,12.0,72,0.00,,,0.00,Wunderground v.1.15,2013-08-29 22:15:00,
2013-08-29 15:20:00,72.1,62.6,30.03,South,169,11.0,13.0,72,0.00,,,0.00,Wunderground v.1.15,2013-08-29 22:20:00,
2013-08-29 15:25:00,72.0,62.5,30.03,SSW,206,11.0,15.0,72,0.00,,,0.00,Wunderground v.1.15,2013-08-29 22:25:00,
2013-08-29 15:30:00,72.1,63.0,30.03,SSE,167,12.0,12.0,73,0.00,,,0.00,Wunderground v.1.15,2013-08-29 22:30:00,
2013-08-29 15:35:00,71.5,62.8,30.02,SSW,197,12.0,13.0,74,0.00,,,0.00,Wunderground v.1.15,2013-08-29 22:35:00,
2013-08-29 15:45:00,71.3,63.0,30.02,SSW,196,12.0,19.0,75,0.00,,,0.00,Wunderground v.1.15,2013-08-29 22:45:00,
2013-08-29 15:50:00,71.1,62.8,30.02,South,188,12.0,14.0,75,0.00,,,0.00,Wunderground v.1.15,2013-08-29 22:50:00,
2013-08-29 15:55:00,71.7,63.0,30.02,South,184,11.0,14.0,74,0.00,,,0.00,Wunderground v.1.15,2013-08-29 22:55:00,
2013-08-29 16:00:00,71.2,62.9,30.02,SSW,198,12.0,12.0,75,0.00,,,0.00,Wunderground v.1.15,2013-08-29 23:00:00,
2013-08-29 16:05:00,71.3,63.0,30.02,SSW,209,14.0,14.0,75,0.00,,,0.00,Wunderground v.1.15,2013-08-29 23:05:00,
2013-08-29 16:15:00,71.1,63.1,30.02,SSW,198,11.0,13.0,76,0.00,,,0.00,Wunderground v.1.15,2013-08-29 23:15:00,
2013-08-29 16:20:00,71.1,62.8,30.02,SSW,201,12.0,12.0,75,0.00,,,0.00,Wunderground v.1.15,2013-08-29 23:20:00,
2013-08-29 16:25:00,71.3,63.0,30.02,SSW,213,13.0,13.0,75,0.00,,,0.00,Wunderground v.1.15,2013-08-29 23:25:00,
2013-08-29 16:30:00,70.8,62.9,30.02,SSW,206,13.0,13.0,76,0.00,,,0.00,Wunderground v.1.15,2013-08-29 23:30:00,
2013-08-29 16:35:00,70.8,62.9,30.02,SW,215,14.0,14.0,76,0.00,,,0.00,Wunderground v.1.15,2013-08-29 23:35:00,
2013-08-29 16:45:00,70.0,62.8,30.02,SSW,201,14.0,14.0,78,0.00,,,0.00,Wunderground v.1.15,2013-08-29 23:45:00,
2013-08-29 16:50:00,69.7,62.5,30.02,SW,215,14.0,16.0,78,0.00,,,0.00,Wunderground v.1.15,2013-08-29 23:50:00,
2013-08-29 16:55:00,69.3,62.5,30.02,SSW,209,13.0,16.0,79,0.00,,,0.00,Wunderground v.1.15,2013-08-29 23:55:00,
2013-08-29 17:00:00,68.7,62.6,30.02,SSW,195,13.0,16.0,81,0.00,,,0.00,Wunderground v.1.15,2013-08-30 00:00:00,
2013-08-29 17:05:00,68.2,62.5,30.02,SSW,205,13.0,16.0,82,0.00,,,0.00,Wunderground v.1.15,2013-08-30 00:05:00,
2013-08-29 17:15:00,68.0,62.3,30.02,South,182,14.0,14.0,82,0.00,,,0.00,Wunderground v.1.15,2013-08-30 00:15:00,
2013-08-29 17:20:00,67.9,62.5,30.02,SSW,202,13.0,20.0,83,0.00,,,0.00,Wunderground v.1.15,2013-08-30 00:20:00,
2013-08-29 17:25:00,67.7,62.3,30.01,South,190,13.0,20.0,83,0.00,,,0.00,Wunderground v.1.15,2013-08-30 00:25:00,
2013-08-29 17:30:00,67.5,62.2,30.01,SSW,199,12.0,12.0,83,0.00,,,0.00,Wunderground v.1.15,2013-08-30 00:30:00,
2013-08-29 17:40:00,67.6,62.6,30.02,South,188,11.0,11.0,84,0.00,,,0.00,Wunderground v.1.15,2013-08-30 00:40:00,
2013-08-29 17:45:00,67.6,62.6,30.02,SSW,210,11.0,13.0,84,0.00,,,0.00,Wunderground v.1.15,2013-08-30 00:45:00,
2013-08-29 17:50:00,67.6,62.3,30.01,SSW,204,11.0,12.0,83,0.00,,,0.00,Wunderground v.1.15,2013-08-30 00:50:00,
2013-08-29 17:55:00,67.1,62.1,30.01,South,191,12.0,12.0,84,0.00,,,0.00,Wunderground v.1.15,2013-08-30 00:55:00,
2013-08-29 18:00:00,66.7,62.0,30.01,SW,215,11.0,12.0,85,0.00,,,0.00,Wunderground v.1.15,2013-08-30 01:00:00,
2013-08-29 18:10:00,66.5,61.8,30.01,SSW,202,12.0,12.0,85,0.00,,,0.00,Wunderground v.1.15,2013-08-30 01:10:00,
2013-08-29 18:15:00,66.5,62.2,30.01,SSW,211,12.0,12.0,86,0.00,,,0.00,Wunderground v.1.15,2013-08-30 01:15:00,
2013-08-29 18:20:00,66.3,61.7,30.01,South,186,12.0,12.0,85,0.00,,,0.00,Wunderground v.1.15,2013-08-30 01:20:00,
2013-08-29 18:25:00,65.7,61.7,30.01,SSW,204,12.0,12.0,87,0.00,,,0.00,Wunderground v.1.15,2013-08-30 01:25:00,
2013-08-29 18:30:00,65.5,61.5,30.01,SSW,208,11.0,11.0,87,0.00,,,0.00,Wunderground v.1.15,2013-08-30 01:30:00,
2013-08-29 18:40:00,65.2,61.6,30.00,SSW,194,11.0,12.0,88,0.00,,,0.00,Wunderground v.1.15,2013-08-30 01:40:00,
2013-08-29 18:45:00,65.0,61.4,30.00,South,186,11.0,20.0,88,0.00,,,0.00,Wunderground v.1.15,2013-08-30 01:45:00,
2013-08-29 18:50:00,64.8,61.5,30.00,South,188,11.0,11.0,89,0.00,,,0.00,Wunderground v.1.15,2013-08-30 01:50:00,
2013-08-29 18:55:00,64.6,61.3,30.00,SSW,213,10.0,12.0,89,0.00,,,0.00,Wunderground v.1.15,2013-08-30 01:55:00,
2013-08-29 19:00:00,64.4,61.1,30.00,SSW,192,10.0,10.0,89,0.00,,,0.00,Wunderground v.1.15,2013-08-30 02:00:00,
2013-08-29 19:05:00,64.2,61.2,30.00,South,182,11.0,11.0,90,0.00,,,0.00,Wunderground v.1.15,2013-08-30 02:05:00,
2013-08-29 19:15:00,63.9,61.2,29.99,South,170,10.0,12.0,91,0.00,,,0.00,Wunderground v.1.15,2013-08-30 02:15:00,
2013-08-29 19:20:00,63.8,61.1,29.99,South,190,9.0,17.0,91,0.00,,,0.00,Wunderground v.1.15,2013-08-30 02:20:00,
2013-08-29 19:25:00,63.7,61.3,29.99,South,182,9.0,17.0,92,0.00,,,0.00,Wunderground v.1.15,2013-08-30 02:25:00,
2013-08-29 19:30:00,63.5,61.1,29.99,SSW,200,8.0,8.0,92,0.00,,,0.00,Wunderground v.1.15,2013-08-30 02:30:00,
2013-08-29 19:35:00,63.4,61.0,29.99,SSW,196,9.0,9.0,92,0.00,,,0.00,Wunderground v.1.15,2013-08-30 02:35:00,
2013-08-29 19:45:00,63.4,61.3,29.99,SSW,202,8.0,12.0,93,0.00,,,0.00,Wunderground v.1.15,2013-08-30 02:45:00,
2013-08-29 19:50:00,63.4,61.3,30.00,SSW,199,7.0,7.0,93,0.00,,,0.00,Wunderground v.1.15,2013-08-30 02:50:00,
2013-08-29 19:55:00,63.3,61.2,30.00,SSW,192,6.0,12.0,93,0.00,,,0.00,Wunderground v.1.15,2013-08-30 02:55:00,
2013-08-29 20:00:00,63.3,61.2,30.00,South,187,3.0,12.0,93,0.00,,,0.00,Wunderground v.1.15,2013-08-30 03:00:00,
2013-08-29 20:05:00,63.3,61.2,30.00,South,182,2.0,12.0,93,0.00,,,0.00,Wunderground v.1.15,2013-08-30 03:05:00,
2013-08-29 20:15:00,63.2,61.4,30.00,South,178,2.0,12.0,94,0.00,,,0.00,Wunderground v.1.15,2013-08-30 03:15:00,
2013-08-29 20:20:00,63.2,61.1,30.01,South,181,2.0,12.0,93,0.00,,,0.00,Wunderground v.1.15,2013-08-30 03:20:00,
2013-08-29 20:25:00,63.2,61.4,30.00,SSW,194,4.0,12.0,94,0.00,,,0.00,Wunderground v.1.15,2013-08-30 03:25:00,
2013-08-29 20:30:00,63.3,61.5,30.01,SSW,192,5.0,12.0,94,0.00,,,0.00,Wunderground v.1.15,2013-08-30 03:30:00,
2013-08-29 20:35:00,63.4,61.6,30.00,SSW,196,7.0,12.0,94,0.00,,,0.00,Wunderground v.1.15,2013-08-30 03:35:00,
2013-08-29 20:40:00,63.4,61.6,30.00,SSW,205,9.0,12.0,94,0.00,,,0.00,Wunderground v.1.15,2013-08-30 03:40:00,
2013-08-29 20:50:00,63.1,61.3,30.01,SSW,207,7.0,7.0,94,0.00,,,0.00,Wunderground v.1.15,2013-08-30 03:50:00,
2013-08-29 20:55:00,63.1,61.3,30.01,SSW,210,7.0,8.0,94,0.00,,,0.00,Wunderground v.1.15,2013-08-30 03:55:00,
2013-08-29 21:00:00,63.3,61.5,30.01,SSW,211,7.0,7.0,94,0.00,,,0.00,Wunderground v.1.15,2013-08-30 04:00:00,
2013-08-29 21:05:00,63.5,61.7,30.01,SSW,211,5.0,12.0,94,0.00,,,0.00,Wunderground v.1.15,2013-08-30 04:05:00,
2013-08-29 21:10:00,63.6,61.5,30.01,SSW,208,4.0,12.0,93,0.00,,,0.00,Wunderground v.1.15,2013-08-30 04:10:00,
2013-08-29 21:15:00,63.8,61.7,30.01,SSW,208,4.0,12.0,93,0.00,,,0.00,Wunderground v.1.15,2013-08-30 04:15:00,
2013-08-29 21:25:00,64.0,61.9,30.02,SSW,209,2.0,12.0,93,0.00,,,0.00,Wunderground v.1.15,2013-08-30 04:25:00,
2013-08-29 21:30:00,63.9,61.5,30.02,SSW,209,1.0,12.0,92,0.00,,,0.00,Wunderground v.1.15,2013-08-30 04:30:00,
2013-08-29 21:35:00,64.0,61.6,30.02,SSW,209,2.0,12.0,92,0.00,,,0.00,Wunderground v.1.15,2013-08-30 04:35:00,
2013-08-29 21:40:00,64.0,61.9,30.02,SSW,209,3.0,12.0,93,0.00,,,0.00,Wunderground v.1.15,2013-08-30 04:40:00,
2013-08-29 21:45:00,63.8,61.7,30.02,SSW,209,2.0,12.0,93,0.00,,,0.00,Wunderground v.1.15,2013-08-30 04:45:00,
2013-08-29 21:55:00,63.6,61.5,30.01,SSW,209,1.0,12.0,93,0.00,,,0.00,Wunderground v.1.15,2013-08-30 04:55:00,
2013-08-29 22:00:00,63.6,61.5,30.01,SSW,209,2.0,12.0,93,0.00,,,0.00,Wunderground v.1.15,2013-08-30 05:00:00,
2013-08-29 22:05:00,63.4,61.3,30.02,SSW,209,2.0,12.0,93,0.00,,,0.00,Wunderground v.1.15,2013-08-30 05:05:00,
2013-08-29 22:10:00,63.1,61.0,30.01,SSW,209,2.0,2.0,93,0.00,,,0.00,Wunderground v.1.15,2013-08-30 05:10:00,
2013-08-29 22:20:00,62.4,60.3,30.02,SSW,209,1.0,1.0,93,0.00,,,0.00,Wunderground v.1.15,2013-08-30 05:20:00,
2013-08-29 22:25:00,62.1,60.4,30.02,SSW,209,0.0,2.0,94,0.00,,,0.00,Wunderground v.1.15,2013-08-30 05:25:00,
2013-08-29 22:30:00,62.1,60.4,30.02,SSW,209,0.0,12.0,94,0.00,,,0.00,Wunderground v.1.15,2013-08-30 05:30:00,
2013-08-29 22:35:00,62.2,60.8,30.02,SSW,209,1.0,12.0,95,0.00,,,0.00,Wunderground v.1.15,2013-08-30 05:35:00,
2013-08-29 22:40:00,62.2,60.5,30.02,SSW,209,1.0,1.0,94,0.00,,,0.00,Wunderground v.1.15,2013-08-30 05:40:00,
2013-08-29 22:50:00,61.5,59.8,30.02,SSW,209,0.0,12.0,94,0.00,,,0.00,Wunderground v.1.15,2013-08-30 05:50:00,
2013-08-29 22:55:00,61.5,60.1,30.02,SSW,209,0.0,12.0,95,0.00,,,0.00,Wunderground v.1.15,2013-08-30 05:55:00,
2013-08-29 23:00:00,61.3,59.6,30.02,SSW,209,0.0,12.0,94,0.00,,,0.00,Wunderground v.1.15,2013-08-30 06:00:00,
2013-08-29 23:05:00,60.8,59.1,30.02,SSW,209,0.0,12.0,94,0.00,,,0.00,Wunderground v.1.15,2013-08-30 06:05:00,
2013-08-29 23:10:00,60.7,59.3,30.02,SSW,209,0.0,12.0,95,0.00,,,0.00,Wunderground v.1.15,2013-08-30 06:10:00,
2013-08-29 23:20:00,60.8,59.7,30.02,SSW,209,0.0,12.0,96,0.00,,,0.00,Wunderground v.1.15,2013-08-30 06:20:00,
2013-08-29 23:25:00,60.7,59.6,30.02,SSW,209,0.0,12.0,96,0.00,,,0.00,Wunderground v.1.15,2013-08-30 06:25:00,
2013-08-29 23:30:00,60.7,59.3,30.02,SSW,209,0.0,12.0,95,0.00,,,0.00,Wunderground v.1.15,2013-08-30 06:30:00,
2013-08-29 23:35:00,60.3,58.9,30.02,SSW,209,0.0,12.0,95,0.00,,,0.00,Wunderground v.1.15,2013-08-30 06:35:00,
2013-08-29 23:40:00,60.0,58.3,30.02,SSW,209,0.0,12.0,94,0.00,,,0.00,Wunderground v.1.15,2013-08-30 06:40:00,
2013-08-29 23:50:00,59.8,58.7,30.02,SSW,209,0.0,12.0,96,0.00,,,0.00,Wunderground v.1.15,2013-08-30 06:50:00,
2013-08-29 23:55:00,60.2,59.3,30.02,SSW,209,0.0,12.0,97,0.00,,,0.00,Wunderground v.1.15,2013-08-30 06:55:00,